Theta_e
297 297 297 297 297 297 297 297 297 297 298 298 298 298 298 298 298 298 298 298 298 298 298 298 298 298 299 299 298 298 297 297 297 297 297 297 297 298 298 298 298 298 298 298 298 298 298 298 297 296 295 295 295 295 295 295 295 295 294 294 294 293 293 293 293 293 293 293 293
296 297 296 295 295 296 297 297 297 297 297 298 298 298 298 298 298 298 298 298 298 298 298 298 298 299 299 299 299 298 298 297 297 297 297 297 297 297 297 298 298 298 298 298 298 297 297 297 297 296 295 295 295 294 295 296 296 295 294 294 293 293 293 293 293 293 293 293 293
296 296 296 296 296 296 296 296 297 297 297 298 298 298 298 298 298 298 298 298 298 298 298 298 298 299 299 299 299 298 298 297 297 297 297 297 297 297 297 297 298 298 298 298 297 297 297 297 297 296 295 295 294 294 294 295 295 294 294 293 293 293 293 292 292 293 293 292 292
296 296 296 296 295 296 296 296 296 297 297 297 297 298 298 298 298 298 298 298 298 298 298 298 299 299 299 299 298 298 298 297 297 297 297 296 296 297 297 297 297 297 298 298 297 297 297 297 297 296 295 295 294 294 294 294 294 294 293 293 293 293 293 292 292 292 292 292 292
296 296 295 295 295 295 296 296 296 296 296 297 297 297 297 297 297 297 297 297 297 297 297 298 298 299 299 299 298 298 298 297 296 296 296 296 296 297 297 297 296 297 297 297 298 297 297 297 296 296 295 295 294 294 294 294 294 293 293 293 293 293 292 292 292 292 292 292 292
295 295 295 295 295 295 295 296 296 296 296 296 296 296 296 296 297 297 296 296 297 297 298 297 298 298 298 298 298 298 298 298 297 296 296 296 296 296 296 296 296 296 297 297 297 297 297 297 296 295 295 295 295 295 295 294 294 293 293 292 292 292 292 292 292 292 292 292 292
294 294 295 295 295 295 295 295 295 296 296 296 296 296 296 296 296 296 296 296 296 297 297 296 297 297 297 297 297 297 297 297 297 297 296 296 296 296 296 296 296 296 296 296 297 297 297 297 295 295 294 294 294 294 295 295 294 293 293 292 292 292 292 292 292 292 292 292 291
293 293 294 294 294 295 295 295 295 295 295 295 295 295 295 296 296 296 296 296 296 296 296 297 297 297 297 296 296 296 297 297 296 296 296 296 295 296 296 296 296 296 296 296 296 296 296 296 295 294 294 294 293 293 294 295 294 293 293 292 292 292 293 293 293 292 292 292 291
292 292 293 294 294 294 294 295 295 294 294 294 294 294 295 295 295 295 295 295 295 296 297 297 297 297 297 298 298 298 298 298 297 297 296 296 296 296 296 296 296 296 296 296 296 296 295 295 294 294 294 293 293 293 294 295 294 294 293 292 292 292 292 292 293 292 292 291 291
290 291 291 292 292 293 294 294 294 294 294 293 294 294 294 293 294 294 294 295 295 296 296 296 297 298 298 298 298 298 298 298 298 298 297 297 297 297 297 296 296 296 296 296 295 295 295 294 294 294 294 294 294 294 294 295 294 293 293 292 292 292 292 292 292 292 291 291 291
289 289 290 290 291 292 293 293 293 293 293 293 293 293 293 293 293 294 294 295 295 295 295 296 297 297 298 298 298 298 298 298 297 297 297 297 296 296 296 296 296 296 296 296 295 295 294 294 293 293 293 293 293 294 294 294 294 293 292 292 292 292 291 291 291 291 291 291 291
289 289 289 289 290 291 291 291 292 292 292 292 292 292 293 293 293 293 294 294 294 294 295 296 297 297 297 298 298 298 297 297 297 297 297 296 296 296 296 296 296 295 295 295 295 294 294 293 293 293 293 293 293 293 293 293 293 292 292 291 291 291 291 291 291 291 291 291 290
289 288 288 288 289 289 290 290 291 291 291 291 291 291 292 292 293 293 293 293 293 294 294 295 296 297 297 297 297 297 297 297 297 296 296 296 296 295 295 295 295 295 295 295 295 294 293 293 293 293 292 292 293 293 293 293 292 292 291 291 290 290 290 290 291 291 291 290 290
289 289 288 288 288 288 288 289 289 289 289 289 290 291 291 292 292 292 293 293 293 293 294 295 295 296 296 296 296 296 296 296 296 295 295 295 295 295 294 294 294 294 294 294 294 294 294 293 293 292 292 292 292 292 292 292 292 291 291 290 290 290 290 290 290 290 290 290 289
289 289 288 288 288 287 287 288 288 288 288 288 289 289 290 290 291 291 292 292 292 293 293 294 294 295 295 296 296 296 295 295 295 294 294 294 294 294 294 293 294 294 294 294 294 294 293 293 293 292 292 291 291 291 291 291 291 291 291 290 290 289 289 290 290 290 290 289 289
288 288 288 288 288 287 287 287 287 287 287 287 288 288 288 289 289 290 291 291 291 292 292 292 293 293 294 294 295 295 295 295 294 294 294 293 293 293 293 293 293 293 293 293 293 293 293 293 293 292 292 291 291 291 291 291 291 291 290 290 290 289 289 289 289 289 289 289 289
288 288 288 288 287 287 287 287 287 287 287 287 287 287 287 287 288 288 289 290 290 291 291 291 292 292 293 293 293 294 294 294 294 293 293 293 293 292 292 292 292 293 293 293 293 293 292 292 292 292 292 291 291 291 291 291 291 291 290 290 290 289 289 289 289 289 289 289 289
288 288 288 287 287 287 287 286 286 286 287 287 287 287 287 287 287 287 288 288 289 290 290 290 291 291 292 292 293 293 293 293 293 293 293 293 292 292 292 292 292 292 292 292 292 292 292 292 292 292 291 291 291 290 290 290 290 290 290 290 289 289 289 289 289 289 289 289 289
288 287 287 287 287 287 286 286 286 286 287 287 287 286 286 287 287 287 287 287 288 289 289 289 289 290 291 291 292 292 292 293 293 293 293 293 292 292 292 292 292 292 292 292 292 292 292 292 292 291 291 291 290 290 290 290 290 290 290 290 289 289 289 288 288 289 289 288 288
287 287 287 286 286 286 286 286 286 287 287 287 287 287 287 286 286 286 286 286 287 288 288 288 288 289 289 290 290 291 291 292 292 292 292 292 292 292 292 292 292 292 292 292 291 291 291 291 291 291 291 290 290 290 289 289 289 289 289 289 289 289 289 288 288 288 288 288 289
287 287 286 286 286 286 286 286 286 287 287 287 287 286 286 286 286 285 285 286 286 287 287 287 287 288 288 289 289 290 291 292 292 292 292 292 292 292 292 292 292 292 292 291 291 291 291 291 291 290 290 290 290 289 289 289 289 289 289 289 289 288 288 288 288 288 288 288 288
287 286 286 286 286 286 286 286 286 286 286 286 286 286 285 285 285 285 285 286 286 286 286 286 286 287 287 288 288 289 290 290 291 292 292 292 292 292 291 291 291 291 291 291 291 290 290 290 290 290 290 290 289 289 289 288 288 288 288 288 288 288 288 288 287 287 287 287 288
286 286 286 285 286 285 285 285 285 285 285 285 285 285 284 284 284 284 285 285 285 285 286 286 286 286 287 288 288 288 289 289 289 290 291 291 292 291 292 291 291 291 290 290 290 290 290 290 290 290 290 289 289 289 288 288 288 288 288 288 288 288 287 287 287 287 287 287 287
286 286 285 285 285 284 284 284 284 284 284 284 284 284 283 283 283 284 284 284 284 284 285 285 285 286 286 287 288 288 287 288 288 289 289 290 290 291 291 291 291 290 290 290 289 290 290 289 289 289 289 289 289 288 288 288 287 287 287 287 287 287 287 287 287 286 286 286 287
285 285 285 285 284 284 283 283 283 283 283 283 283 283 282 282 282 282 282 282 282 283 284 284 285 286 286 287 287 287 287 288 288 288 288 289 290 290 290 291 290 290 290 289 290 290 290 289 289 289 289 289 288 288 288 288 288 287 287 287 287 287 287 286 286 286 286 286 286
284 284 284 283 283 282 282 282 282 282 282 282 282 282 281 281 281 281 281 281 281 282 283 284 285 285 286 287 287 287 287 288 288 289 289 288 289 289 290 290 290 290 290 288 289 290 290 291 290 289 288 288 288 288 288 288 287 287 287 287 287 286 286 286 286 286 286 286 286
282 282 282 281 281 280 280 281 281 281 280 280 280 280 280 280 280 280 280 280 281 281 282 283 285 285 286 287 287 287 287 288 288 288 289 289 288 288 288 289 289 290 289 288 289 290 291 291 291 290 289 288 288 288 288 288 287 287 287 287 287 286 286 285 285 285 285 285 285
281 281 281 281 280 280 280 280 280 279 279 279 279 280 280 280 279 279 279 279 280 281 282 283 285 286 286 286 286 286 287 287 288 288 288 288 288 288 288 288 288 288 289 289 290 291 291 291 291 291 290 288 288 288 287 287 287 287 287 287 286 286 286 285 285 285 285 285 285
281 281 280 280 279 279 279 279 278 278 278 279 279 279 279 279 278 278 278 279 280 281 282 283 284 285 285 285 285 286 286 287 287 287 288 288 288 288 288 288 287 288 289 290 290 290 291 291 291 291 291 290 289 289 288 288 287 287 287 287 287 287 286 286 286 285 285 285 285
280 280 280 279 278 278 278 278 278 278 278 278 278 278 278 277 277 277 278 278 279 280 281 282 283 283 284 284 284 285 285 286 287 287 287 287 287 287 287 287 287 288 288 289 290 290 290 290 290 291 291 290 289 288 288 288 288 287 287 287 287 287 287 286 286 286 285 285 285
280 279 279 278 278 278 277 277 277 277 277 277 277 277 276 276 277 277 278 278 279 280 281 282 282 282 283 283 284 284 284 285 285 286 286 287 286 286 286 286 287 287 288 289 289 289 289 290 290 290 290 290 289 288 288 288 288 287 287 287 287 287 287 287 286 286 286 285 285
279 279 279 278 277 277 277 277 277 276 276 276 276 276 276 276 276 277 278 279 279 279 280 280 281 281 282 282 283 283 283 284 284 285 285 285 285 286 286 286 286 287 287 288 289 289 289 289 289 290 290 290 289 288 288 288 288 287 287 287 287 287 287 287 287 287 286 286 285
279 279 278 278 277 277 276 276 276 276 275 275 275 275 275 275 276 277 277 278 278 279 279 279 280 280 281 281 282 282 283 283 284 284 284 284 284 284 285 285 285 286 287 288 288 288 289 289 289 289 290 290 288 288 288 288 287 287 287 287 288 288 288 287 287 287 287 287 286
279 278 278 277 277 276 276 275 275 275 275 274 274 274 275 275 276 276 277 277 278 278 279 279 279 280 280 281 281 282 282 282 283 283 283 284 284 284 284 284 285 286 287 288 288 288 288 289 289 289 289 288 287 287 287 287 287 287 287 287 287 287 288 288 287 287 287 287 287
279 278 277 277 276 276 275 275 275 274 274 274 273 274 274 275 275 276 276 277 278 278 278 279 279 279 280 281 281 281 281 281 281 282 282 283 283 283 283 283 284 285 287 287 288 288 288 288 289 289 289 288 287 287 287 287 286 286 286 287 287 287 288 288 287 287 287 287 287
278 277 277 276 276 275 275 274 274 274 273 273 273 273 274 274 275 276 276 277 277 277 277 278 278 279 279 280 280 280 281 281 280 280 281 281 282 281 282 282 283 284 286 287 287 287 288 288 288 289 289 288 287 287 287 286 286 286 286 286 286 287 287 287 287 287 287 287 287
278 277 276 276 275 275 274 274 273 273 273 272 273 273 274 274 275 275 276 276 276 276 277 277 277 278 278 279 279 280 280 281 280 280 280 280 280 280 281 281 282 283 285 286 286 287 287 287 288 288 288 287 287 286 286 286 286 286 286 285 286 286 287 287 287 287 287 287 287
278 277 276 275 275 274 274 273 273 272 272 272 273 273 273 274 274 275 275 276 276 276 276 276 277 277 278 278 278 279 279 280 280 279 279 279 280 280 280 281 281 282 283 285 285 286 286 287 287 287 287 286 286 286 285 285 285 285 285 285 285 286 286 287 287 287 287 287 286
277 277 276 275 274 274 273 273 272 272 272 272 273 273 273 274 274 274 275 275 275 275 275 276 276 276 277 277 278 278 278 278 278 278 278 278 279 279 280 280 281 281 283 284 285 285 286 286 287 287 287 286 285 285 285 285 284 284 284 285 285 285 286 286 287 287 287 286 286
277 276 275 274 274 273 273 272 272 272 272 272 272 273 273 273 274 274 275 275 275 275 275 275 276 276 276 277 276 276 276 277 277 277 277 278 278 278 279 280 280 281 282 283 284 285 286 286 286 287 286 285 285 285 285 285 284 284 284 284 284 284 285 286 286 286 286 286 285
276 275 274 274 273 273 272 272 272 272 272 272 272 272 273 273 274 274 274 274 275 275 275 275 275 275 275 275 275 275 275 275 276 276 276 277 277 278 278 279 280 280 281 282 284 285 285 286 286 286 286 285 285 285 285 284 284 283 283 283 284 284 284 285 285 286 286 285 285
Wind_Speed
9 8 6 6 5 5 4 4 4 4 4 4 4 4 5 5 5 5 4 4 4 4 4 4 4 4 4 5 6 7 8 9 10 10 10 11 11 12 12 12 12 12 12 12 12 11 10 10 9 8 6 6 7 7 7 6 8 9 10 11 10 10 12 13 12 12 13 12 9
9 9 7 7 6 5 4 4 4 4 4 4 4 4 4 4 4 5 5 5 5 5 5 4 5 5 6 6 6 7 8 8 9 10 10 11 12 12 12 12 12 12 12 12 12 11 10 10 9 8 7 6 7 7 7 6 7 9 11 13 10 10 10 12 12 13 13 13 11
10 9 8 8 7 7 6 5 5 5 5 5 4 4 4 4 4 4 4 5 5 6 5 5 5 6 6 7 6 6 7 8 9 9 10 10 11 12 12 11 12 11 11 11 11 11 10 10 9 8 7 7 7 8 8 7 7 9 11 13 10 8 8 9 11 11 11 10 11
11 10 9 9 9 9 7 6 6 6 6 5 5 5 4 4 4 4 4 5 6 6 6 6 5 5 6 6 6 7 7 7 8 9 9 10 10 11 12 12 12 12 11 11 11 11 11 11 9 7 7 8 9 9 8 7 8 8 9 10 8 8 8 8 9 9 9 9 11
12 11 10 9 10 9 8 7 7 7 6 5 4 4 4 4 4 4 4 5 5 5 6 7 6 5 5 6 7 7 8 8 8 8 8 9 10 11 11 12 12 12 12 11 11 11 12 12 9 7 7 8 8 8 8 8 9 9 8 7 7 8 8 8 8 8 8 8 9
12 12 11 11 11 10 9 8 8 7 6 5 5 5 5 4 4 5 5 5 6 7 7 7 6 5 6 7 8 8 8 8 7 8 8 9 9 10 11 12 12 12 11 11 11 11 11 11 8 7 7 7 7 8 9 10 9 9 8 8 8 8 8 9 8 8 8 9 10
12 13 13 13 13 12 10 10 9 8 7 5 6 6 6 6 6 7 7 7 7 7 6 5 5 6 6 7 8 8 8 8 8 8 9 9 9 10 10 11 11 11 11 11 11 11 10 10 8 8 7 7 7 8 9 10 9 9 9 9 8 8 8 9 7 7 9 12 13
12 13 13 14 13 13 12 12 10 9 8 7 8 8 9 8 8 8 8 7 7 6 5 5 6 7 7 7 7 8 8 9 9 8 9 9 10 10 10 9 10 10 11 11 11 11 10 9 8 8 8 7 7 8 9 10 10 10 10 10 9 8 7 6 6 7 9 12 13
12 13 13 13 14 14 13 13 12 11 11 10 11 11 11 10 10 9 8 7 6 6 6 5 6 7 7 7 6 6 6 6 7 8 8 8 9 9 9 8 9 9 10 10 10 10 10 9 8 8 8 8 8 8 9 10 10 11 10 10 9 8 8 7 8 9 10 11 12
12 13 13 13 14 14 13 13 12 12 13 12 13 13 12 10 10 9 8 7 7 7 7 7 7 7 6 6 6 5 5 5 6 6 7 7 7 7 8 7 8 9 9 9 9 10 10 9 9 9 9 9 10 9 9 9 11 11 11 9 9 9 10 9 10 11 11 11 12
13 13 13 12 14 13 13 12 12 12 12 13 13 13 12 11 11 11 10 9 9 9 9 8 8 7 7 6 6 6 6 6 6 6 6 7 7 8 8 8 8 9 9 9 9 9 9 8 9 10 10 10 11 10 10 10 11 11 11 10 10 11 12 12 11 11 11 11 12
12 12 12 12 13 13 12 12 11 11 12 13 13 13 12 11 12 12 11 11 11 10 10 9 8 8 7 6 6 6 6 6 6 6 6 7 7 8 8 9 9 9 9 9 9 9 8 8 9 10 12 12 10 9 10 11 11 11 12 12 12 12 12 12 12 11 10 11 12
11 11 12 12 13 12 12 11 10 10 11 12 12 12 11 11 12 12 12 12 11 10 9 9 9 8 7 7 7 6 6 6 7 7 7 7 7 8 8 9 9 9 9 9 10 9 9 9 10 11 12 12 11 10 10 11 11 12 12 13 13 13 14 14 12 11 11 11 12
11 11 11 11 12 11 11 11 9 9 10 12 12 11 11 11 11 11 11 12 11 10 9 9 8 8 7 7 7 7 7 7 7 8 8 7 7 8 8 8 9 9 9 9 9 10 10 10 11 12 12 13 12 12 12 12 12 12 12 13 14 14 14 14 13 12 12 13 13
11 11 11 11 11 10 10 10 8 9 10 11 11 11 10 10 10 11 11 11 11 10 9 9 8 8 8 8 8 8 8 8 8 8 8 8 8 8 9 9 9 10 10 9 10 10 11 11 12 12 12 13 13 13 13 13 13 13 13 13 14 14 14 14 14 13 13 13 13
11 11 10 10 10 10 10 9 8 8 9 10 10 10 10 10 10 10 11 12 10 10 9 10 9 9 8 8 8 8 8 8 8 8 9 9 9 9 9 9 10 10 10 11 11 11 11 12 12 12 13 13 13 13 13 13 13 13 13 13 14 14 14 14 14 14 14 14 14
11 11 11 10 11 11 10 10 8 8 9 10 10 10 9 9 9 10 10 11 10 10 11 11 10 9 9 8 8 8 8 8 8 8 8 9 9 9 9 10 10 10 10 11 11 11 12 12 12 12 13 13 13 13 13 13 13 13 14 14 14 14 14 14 14 14 14 14 15
11 11 11 11 11 11 11 11 10 10 10 10 10 10 9 9 9 9 10 10 10 11 12 12 11 10 9 9 8 7 7 7 8 8 8 9 9 9 10 10 10 10 10 11 11 12 12 12 12 12 12 13 13 13 13 13 13 13 14 14 14 14 14 14 14 14 14 14 15
11 11 12 12 12 12 12 12 11 11 11 10 10 10 10 10 10 10 10 10 10 11 11 12 11 10 10 10 9 7 7 7 8 9 9 9 9 10 10 10 10 10 10 10 11 12 12 13 13 13 13 12 12 13 13 13 13 13 13 14 14 13 14 14 14 14 14 14 14
11 11 12 12 12 12 12 12 12 11 10 10 10 10 10 10 10 10 11 11 11 10 10 11 10 10 10 10 9 8 7 6 7 8 9 9 9 9 10 10 10 10 10 11 12 12 12 13 13 13 13 13 13 13 13 13 13 13 13 13 13 13 14 14 14 14 14 14 14
11 11 11 12 11 12 12 12 12 11 11 10 11 11 11 11 11 11 11 11 11 11 10 10 10 10 10 10 10 10 9 7 7 7 8 8 9 9 10 10 10 10 10 11 12 13 13 13 13 13 13 13 13 13 13 13 13 13 13 12 12 13 13 14 14 14 14 14 14
11 11 11 11 11 11 12 12 12 11 11 11 11 11 11 11 11 11 12 12 12 11 11 11 11 10 10 10 10 10 9 8 8 8 8 8 8 9 9 9 9 10 10 10 11 12 13 13 13 13 13 12 13 13 13 12 13 13 13 13 13 13 13 13 14 14 14 14 14
11 11 10 10 10 11 11 12 12 12 12 11 11 11 11 11 11 12 12 12 12 12 12 11 11 11 11 10 10 10 10 9 9 9 8 8 8 9 9 9 9 9 10 10 10 11 11 11 12 12 12 12 12 12 12 13 13 13 13 14 14 14 13 13 14 14 14 14 14
11 10 9 9 10 10 11 11 11 11 11 11 12 12 11 11 11 12 12 12 12 12 12 10 10 11 11 10 10 10 9 9 9 9 9 9 9 9 9 8 8 8 9 8 9 10 10 9 10 10 10 11 11 11 12 12 13 13 13 14 14 14 14 13 14 14 14 14 14
10 10 9 9 9 10 10 10 11 11 11 11 11 11 11 11 11 11 11 12 12 12 12 11 11 10 10 9 9 9 8 9 9 9 9 8 8 8 8 8 8 8 8 8 10 12 13 12 11 10 9 9 10 10 10 11 12 13 13 14 14 14 14 14 14 14 14 15 14
10 9 9 9 9 9 9 10 10 10 10 11 11 11 11 11 10 11 11 12 12 12 12 12 11 10 9 8 8 8 8 8 8 9 8 8 8 8 8 8 8 7 7 8 10 13 15 17 16 14 11 10 9 9 9 10 11 12 13 13 14 14 14 14 15 15 14 14 14
9 9 8 8 8 8 8 9 9 9 10 10 10 11 11 11 10 11 12 12 12 12 12 10 10 9 8 8 8 8 8 8 8 9 9 9 8 8 8 8 7 7 7 9 12 15 17 18 19 18 15 12 11 10 10 10 10 11 12 13 13 14 15 15 15 15 14 14 14
9 9 9 8 8 8 9 9 9 9 10 10 11 11 11 11 11 12 12 12 12 12 11 9 8 8 7 7 8 8 9 9 9 9 9 9 9 9 9 8 7 7 9 12 15 17 18 19 20 20 18 14 12 11 11 11 11 11 11 11 12 14 15 15 14 14 14 14 13
10 10 9 9 9 9 9 9 9 9 10 10 11 11 11 11 11 12 12 12 12 11 11 10 8 7 8 8 9 10 10 10 9 8 8 8 9 9 9 9 9 9 11 15 17 18 19 20 20 20 20 18 13 11 10 10 10 10 10 11 11 13 14 14 13 13 13 14 13
10 9 9 9 9 9 9 8 9 9 10 10 10 11 11 11 11 11 11 11 12 12 11 11 10 10 10 11 11 11 10 10 9 8 8 8 9 9 10 10 10 10 12 15 17 18 19 20 20 21 21 21 16 12 10 10 11 11 11 11 12 14 15 15 15 15 14 13 13
9 9 9 9 9 9 9 9 9 9 10 10 10 11 11 11 12 12 12 12 13 13 13 13 13 13 13 13 12 12 12 11 10 9 8 8 9 10 11 12 11 11 12 15 17 19 19 20 21 21 22 21 16 13 11 11 12 12 12 12 13 15 15 15 15 15 15 15 14
9 9 9 9 9 9 9 9 9 9 10 10 11 11 11 12 13 13 14 13 13 14 14 14 14 14 14 14 14 14 13 12 10 10 9 9 9 10 11 11 11 11 13 16 18 19 19 20 20 21 22 22 17 14 12 12 13 13 14 15 16 16 16 14 14 15 16 16 15
9 9 9 9 10 10 9 9 9 10 10 11 11 11 12 13 13 14 13 12 13 13 14 14 14 14 15 15 15 15 14 12 11 11 11 11 11 12 12 12 10 11 13 16 18 19 19 20 20 21 21 22 17 14 13 13 12 12 13 15 16 17 17 17 16 16 16 16 15
9 9 10 10 10 10 10 9 9 10 11 11 12 12 12 13 14 14 13 13 13 13 14 14 14 14 15 15 15 14 13 11 10 11 11 12 12 13 13 11 8 10 13 17 18 19 19 19 20 21 21 19 15 13 13 14 13 13 14 15 16 16 17 17 17 17 16 16 15
9 9 10 10 10 10 10 10 10 10 11 12 12 13 13 14 14 14 15 14 14 14 14 14 14 14 14 14 14 14 13 12 11 11 11 12 13 14 14 13 11 12 15 18 19 19 19 20 20 21 20 17 13 11 12 14 14 15 16 17 17 17 17 17 16 16 16 16 16
9 9 9 10 10 10 10 10 10 11 12 12 13 14 15 15 15 15 15 15 15 15 15 15 15 15 15 15 13 13 12 13 12 12 11 11 12 14 16 16 15 15 17 19 19 19 19 20 20 21 19 16 11 10 11 12 12 14 16 17 17 17 17 16 15 15 15 15 15
8 9 9 10 10 10 10 10 11 11 12 13 14 15 15 16 16 16 15 14 15 15 16 15 15 16 16 15 14 14 14 14 13 13 12 12 13 14 16 17 17 17 17 19 19 20 20 20 20 20 18 14 11 10 10 10 11 12 14 16 17 17 16 14 14 14 14 15 15
8 8 9 10 10 10 10 11 11 12 13 14 15 15 16 16 16 15 15 14 14 15 16 16 16 16 16 15 15 15 15 14 14 14 14 14 14 15 16 18 18 17 16 18 19 20 20 20 21 20 17 12 11 10 10 10 11 12 13 13 14 15 14 12 11 12 13 15 16
9 9 9 10 10 11 11 11 12 12 13 14 15 16 16 16 16 15 15 14 14 15 16 16 17 16 16 15 15 15 15 15 16 15 15 15 14 15 16 18 18 17 17 18 20 21 22 21 22 21 19 14 11 10 10 9 11 12 13 13 13 13 13 12 11 11 12 14 17
10 10 10 10 10 11 11 12 13 13 14 15 16 16 16 16 16 16 15 14 15 15 16 16 17 17 16 15 15 16 17 17 17 17 16 16 16 16 17 18 18 18 19 20 22 23 23 23 22 22 19 14 11 10 9 9 11 12 13 12 12 12 12 12 11 10 11 12 15
10 10 10 11 11 11 12 13 14 15 15 16 16 16 16 16 16 16 15 14 15 15 15 15 17 17 17 16 16 16 18 19 19 19 18 18 17 17 17 18 19 19 19 20 22 23 24 24 23 23 20 15 11 10 9 9 11 12 13 13 12 12 11 11 10 10 10 11 11
Wind_Direction
2 355 347 339 331 322 315 312 311 311 310 310 311 312 312 311 308 305 302 299 294 291 288 283 278 270 258 243 231 225 221 221 222 224 226 229 233 234 234 234 233 232 232 231 231 231 230 227 227 228 228 226 225 223 220 215 210 209 208 207 207 207 206 207 208 208 207 206 205
8 2 355 348 339 329 321 314 314 314 315 315 314 313 311 308 307 305 303 302 300 298 295 292 287 281 272 259 243 233 229 227 226 226 228 230 234 235 236 236 235 233 232 231 231 230 230 227 226 227 227 227 227 226 223 216 212 212 213 211 210 208 207 209 210 209 208 208 206
14 9 4 359 351 344 335 326 326 325 323 319 318 315 313 309 306 305 304 304 304 302 299 296 293 288 282 274 259 245 237 233 231 230 230 232 234 235 236 238 237 235 233 232 231 231 231 229 227 226 226 226 226 226 225 219 215 216 217 215 212 209 208 211 209 209 208 208 206
17 14 10 5 358 351 344 337 333 330 325 320 317 314 311 309 308 305 304 303 302 300 298 297 296 293 289 282 270 258 248 240 237 236 235 235 235 236 237 238 238 237 235 233 233 233 232 231 230 228 227 227 227 227 225 220 216 217 219 218 216 213 211 211 209 207 206 208 208
15 14 11 7 3 358 351 344 339 334 328 322 317 315 313 310 307 305 303 301 299 298 298 298 298 295 291 284 276 267 259 249 243 240 239 239 239 238 238 238 238 238 236 233 232 232 233 232 233 232 231 229 230 229 227 224 220 219 220 221 220 217 214 213 210 208 207 208 208
11 10 9 7 5 2 357 351 345 340 334 328 324 321 317 313 310 307 305 302 300 299 300 300 299 295 289 285 280 275 269 260 251 246 243 243 243 242 241 240 239 238 237 234 232 232 232 232 235 235 234 232 233 233 231 228 224 222 220 221 221 220 218 216 212 209 208 209 209
10 8 7 6 5 3 -0 356 353 349 345 340 338 333 327 320 314 309 306 303 301 301 301 299 296 292 289 287 285 283 279 272 263 254 249 247 246 245 244 242 240 238 237 236 233 231 230 229 234 236 237 236 236 234 231 229 228 225 222 221 221 220 219 219 215 211 210 211 209
11 9 7 5 4 2 1 0 1 0 359 358 353 346 339 330 323 316 311 305 302 300 299 296 293 291 290 288 287 284 282 278 272 265 258 253 250 248 246 244 242 240 238 236 234 232 230 228 232 236 237 237 237 235 231 229 229 228 225 223 223 221 219 219 216 214 213 212 210
11 8 6 5 3 2 1 3 6 7 6 4 359 353 347 339 332 326 320 314 311 307 303 298 294 292 289 285 281 277 274 272 269 268 265 262 257 254 251 248 244 241 239 237 236 233 231 230 232 234 236 236 237 236 232 227 227 228 227 226 225 224 222 221 218 218 217 215 213
11 8 6 4 2 1 1 3 7 9 8 5 1 356 351 346 341 335 331 326 321 315 310 304 301 298 292 285 277 271 265 260 258 257 259 260 259 257 254 252 248 244 241 238 237 235 234 232 233 234 235 236 237 237 235 229 227 226 226 227 226 225 224 222 220 219 219 218 216
11 8 5 3 0 359 360 3 7 9 8 5 1 358 354 351 347 342 337 332 325 319 314 311 309 305 299 291 282 275 269 264 257 251 249 249 251 252 253 253 250 247 244 240 238 237 235 234 234 235 235 236 237 238 237 233 229 227 226 227 226 226 227 225 222 220 220 221 219
9 7 4 2 359 358 360 2 6 7 6 3 1 358 355 353 350 345 340 335 329 325 320 317 314 309 303 296 289 282 275 269 262 256 249 245 244 245 247 249 249 249 247 244 241 239 237 235 235 235 236 236 236 237 237 235 232 230 227 226 226 226 227 227 224 222 221 221 221
6 5 3 1 359 359 359 1 3 5 4 2 360 357 353 351 350 347 343 339 335 330 324 320 315 309 304 298 293 287 280 273 267 261 255 248 244 241 242 243 245 246 246 245 242 241 239 237 236 236 236 236 236 236 236 235 234 231 229 227 226 227 227 228 226 224 223 222 223
3 3 2 0 360 359 359 359 0 2 1 360 357 354 351 348 349 348 345 341 336 331 326 321 317 312 306 300 295 289 283 276 270 264 259 253 247 243 241 241 241 242 243 243 242 241 240 240 238 238 238 238 238 237 236 236 235 234 231 229 228 228 228 228 227 225 224 224 224
359 -0 -0 359 -0 359 358 357 357 358 358 358 355 352 349 347 347 346 343 340 336 332 329 326 322 317 311 305 298 292 286 279 273 268 263 257 252 247 244 243 242 241 241 241 240 239 239 240 240 240 240 240 240 239 239 238 237 236 234 232 230 230 229 229 227 226 225 224 225
356 357 357 357 358 358 357 355 354 354 354 354 351 349 347 346 344 342 340 337 335 332 331 329 325 321 316 311 304 297 291 284 277 271 266 261 256 252 248 245 244 242 242 241 240 238 237 238 239 240 241 242 242 242 241 240 240 239 238 236 234 232 231 230 228 227 226 225 225
354 354 354 354 355 355 354 352 350 349 349 348 347 347 345 344 341 339 336 334 333 331 329 328 325 322 318 315 310 303 296 289 282 276 269 264 261 256 252 248 245 243 242 242 241 240 239 237 237 239 241 243 244 244 244 243 242 241 240 238 236 235 233 231 229 228 227 226 226
350 351 351 351 352 351 350 348 347 345 344 343 343 343 342 341 338 335 332 331 330 329 327 325 323 320 317 316 312 307 300 294 287 281 275 269 265 261 257 253 249 246 244 243 243 243 242 240 239 238 239 241 243 244 245 245 244 243 242 240 238 236 234 233 231 229 228 227 226
347 347 348 348 348 347 346 344 343 341 340 338 337 337 337 336 334 332 330 329 328 327 325 322 320 319 317 315 312 308 301 294 288 284 279 274 270 266 262 259 255 250 246 244 245 244 244 243 242 240 240 239 241 242 243 244 245 245 243 242 240 238 236 234 232 230 229 228 227
343 344 344 345 345 344 342 340 339 337 335 333 333 333 333 333 333 331 329 327 326 324 322 320 319 318 317 316 313 309 304 297 291 285 281 276 272 269 266 263 260 255 251 248 247 246 246 245 244 243 241 240 240 240 241 242 243 244 244 243 241 239 237 234 233 231 230 229 227
339 339 340 341 341 340 338 336 334 332 331 330 330 331 331 330 331 329 327 324 323 322 320 319 318 318 316 315 313 311 308 304 298 291 285 279 274 270 267 265 263 259 256 253 251 250 248 247 246 245 243 242 241 240 239 239 241 242 242 243 242 240 238 235 233 232 231 230 228
333 334 335 336 336 335 334 332 330 329 329 329 329 329 328 328 327 325 323 322 321 321 320 319 318 316 313 312 310 309 308 306 303 298 293 287 281 276 272 268 265 262 259 256 254 253 251 250 249 248 246 245 243 241 240 239 240 240 241 241 241 240 239 236 234 233 231 230 228
328 328 329 330 331 331 329 328 327 326 327 327 327 327 326 325 323 322 322 321 320 318 317 317 315 312 309 305 303 302 301 301 300 298 295 292 287 283 278 273 267 263 261 259 258 256 255 253 252 250 249 248 247 245 243 240 240 241 241 241 241 240 239 237 235 234 232 231 229
323 323 323 324 325 325 325 324 323 323 324 325 325 324 323 322 321 320 320 319 317 315 313 310 308 305 302 298 295 293 291 292 293 293 292 291 289 286 283 278 272 266 263 261 258 256 255 254 253 252 250 249 248 247 245 243 242 242 242 242 241 240 238 236 235 234 233 232 231
318 318 318 317 319 320 320 321 321 321 321 321 321 321 320 320 320 320 319 318 315 312 308 304 301 298 296 292 288 284 283 284 286 288 288 287 286 286 285 283 278 273 268 263 258 256 254 253 254 254 253 252 250 248 246 244 243 243 242 242 242 241 240 238 235 234 233 233 232
314 313 312 312 313 315 317 318 317 317 317 318 318 318 318 318 318 318 318 316 313 310 306 302 298 294 291 289 287 285 283 283 285 286 287 286 285 285 284 283 281 279 276 270 265 262 260 259 258 256 256 256 254 252 249 246 243 242 242 242 242 242 241 240 237 235 233 233 232
310 308 307 308 310 312 313 315 316 316 316 317 317 316 316 317 317 317 316 313 311 307 303 298 294 291 289 289 289 289 288 288 288 286 285 284 283 282 282 281 280 279 277 274 272 270 268 266 264 262 260 259 258 256 254 252 248 244 242 242 242 242 241 241 239 237 235 233 232
305 304 304 306 307 308 310 314 315 316 316 316 315 315 314 315 315 314 312 310 308 306 303 298 294 292 292 294 295 294 292 290 287 285 283 281 280 279 279 278 276 274 273 274 274 274 273 271 269 266 264 260 260 259 257 255 252 249 245 243 243 242 242 241 240 238 236 234 232
300 301 302 303 303 305 308 313 313 314 314 314 313 313 313 313 312 311 309 307 306 306 305 304 301 298 297 296 296 294 292 289 285 282 280 278 278 277 277 277 275 274 273 274 274 275 275 274 272 270 267 263 262 260 259 257 254 251 248 245 243 242 242 241 240 238 236 234 231
297 297 297 297 299 301 305 307 308 309 310 311 311 310 310 310 309 308 307 306 305 305 304 303 301 298 295 295 294 292 290 288 285 282 280 278 277 277 277 276 275 273 272 273 273 274 274 274 273 271 269 266 264 262 261 260 257 254 251 248 246 245 244 243 241 239 237 234 231
292 292 292 293 295 297 299 302 304 306 307 307 307 307 307 306 306 306 306 306 304 303 301 300 297 295 293 293 292 290 289 289 288 285 282 279 277 276 276 276 274 272 270 270 271 271 271 271 271 271 270 268 265 262 260 260 259 257 254 251 249 247 246 245 243 240 237 235 232
287 287 288 289 291 293 295 298 301 302 303 303 303 303 303 302 301 302 303 303 302 301 300 299 297 296 294 294 292 290 289 289 287 286 284 282 280 279 278 276 273 270 268 268 269 269 269 268 268 268 268 268 266 263 260 259 259 258 257 256 253 250 248 245 244 242 239 236 233
282 282 283 284 287 289 292 295 297 299 300 300 299 300 300 299 300 301 301 300 299 298 298 298 297 296 294 293 292 290 289 287 285 284 283 283 283 282 280 277 273 270 268 268 269 269 269 268 267 267 267 267 266 263 260 259 259 258 258 257 255 252 250 248 246 244 241 239 236
278 279 279 280 283 286 290 293 295 297 298 298 298 298 298 299 300 299 298 298 297 297 296 295 294 292 291 290 289 288 287 285 283 282 282 282 282 282 280 278 272 268 267 268 269 269 269 268 267 267 267 266 264 261 260 259 258 257 257 257 257 255 252 249 247 245 242 239 237
276 276 277 279 281 285 288 291 294 296 297 297 297 298 298 298 297 297 297 298 297 296 293 292 291 289 288 286 285 284 284 282 281 280 279 279 280 281 280 278 274 270 268 269 269 269 268 268 268 268 267 266 262 259 257 258 257 257 256 257 256 255 254 251 249 246 242 240 237
273 274 276 278 281 284 287 290 293 295 295 295 296 297 298 298 297 296 296 297 295 293 291 290 289 288 286 286 284 283 281 281 281 280 278 277 278 279 279 278 276 273 272 271 270 269 268 268 268 268 267 266 261 256 255 256 257 256 256 256 256 254 253 251 249 246 242 239 236
274 275 276 279 282 284 286 289 291 292 292 293 294 295 295 296 296 295 295 295 293 291 289 289 288 287 285 285 285 283 282 282 283 282 280 277 276 276 277 277 276 274 272 271 270 269 269 268 268 267 267 265 259 255 254 254 256 257 257 256 256 254 252 250 248 244 241 237 234
280 279 280 281 283 284 286 288 289 289 290 291 292 292 293 294 293 293 293 292 291 289 288 288 286 284 284 285 284 284 283 283 283 282 280 277 274 273 274 275 274 272 271 270 269 268 268 267 266 266 264 261 257 254 254 254 256 256 257 257 257 255 252 249 246 243 239 235 231
288 287 286 285 285 286 287 287 286 286 287 289 290 291 291 292 291 290 290 289 287 286 286 285 284 283 284 285 285 285 284 283 282 280 279 277 273 271 270 272 272 271 269 268 267 267 266 265 265 263 262 258 255 252 252 253 255 256 257 258 259 257 254 249 245 241 238 234 229
294 293 291 288 288 288 288 287 285 285 286 288 288 288 288 289 288 287 287 286 284 283 283 283 283 284 285 286 286 285 285 284 282 280 278 276 274 271 268 268 269 269 268 267 266 265 265 263 263 261 259 256 251 248 249 251 254 255 256 256 257 257 255 250 244 240 237 233 227
300 299 297 294 292 291 290 288 287 286 286 286 285 285 286 286 285 285 285 284 283 283 283 283 284 285 286 286 286 285 284 283 281 280 278 277 275 272 269 267 267 267 266 265 264 263 262 261 260 258 256 252 248 245 245 247 251 253 254 255 255 256 255 252 246 241 235 231 226